EW7191 Weather Reports


Display with metric or nautical units.
time (UTC)temp
F
wind
direction
speed
MPH
gust
MPH
rain 1hr
in
rain 24hr
in
rain mn
in
humidity
%
barometer
mb
20260505124530 55 14 0.0 0.0 0.00 0.00 0.00 83 1020.0
20260505123028 55 14 0.0 0.0 0.00 0.00 0.00 83 1019.8
20260505121530 55 14 0.0 0.0 0.00 0.00 0.00 84 1019.8
20260505120026 55 14 0.0 0.0 0.00 0.00 0.00 85 1019.7
20260505114533 55 14 0.0 0.0 0.00 0.00 0.00 84 1019.5
20260505113024 55 14 0.0 0.0 0.00 0.00 0.00 84 1019.5
20260505111532 55 14 0.0 0.0 0.00 0.00 0.00 84 1019.5
20260505101520 55 14 0.0 0.0 0.00 0.00 0.00 85 1019.3
20260505100026 55 14 0.0 0.0 0.00 0.00 0.00 84 1019.3
20260505094519 56 14 0.0 0.0 0.00 0.00 0.00 84 1019.3
20260505093018 56 14 0.0 0.0 0.00 0.00 0.00 83 1019.5
20260505091516 56 14 0.0 0.0 0.00 0.00 0.00 83 1019.5
20260505090019 56 14 0.0 0.0 0.00 0.00 0.00 83 1019.5
20260505084515 56 14 0.0 0.0 0.00 0.00 0.00 83 1019.6
20260505083022 56 14 0.0 0.0 0.00 0.00 0.00 83 1019.7
20260505081513 56 14 0.0 0.0 0.00 0.00 0.00 83 1019.7
20260505080012 56 14 0.0 0.0 0.00 0.00 0.00 83 1019.8
20260505074512 56 14 0.0 0.0 0.00 0.00 0.00 84 1019.8
20260505073011 56 14 0.0 0.0 0.00 0.00 0.00 83 1019.7
20260505071519 55 14 0.0 0.0 0.00 0.00 0.00 84 1019.7
20260505070005 55 14 0.0 0.0 0.00 0.00 0.00 86 1019.6
20260505064504 54 14 0.0 0.0 0.00 0.00 0.00 87 1019.6
20260505063003 53 14 0.0 0.0 0.00 0.00 0.00 88 1019.5
20260505061505 53 14 0.0 0.0 0.00 0.00 0.00 87 1019.4
20260505060001 53 14 0.0 0.0 0.00 0.00 0.00 86 1019.3
20260505054626 54 268 0.0 0.0 0.00 0.00 0.00 85 1019.2
20260505053059 55 268 0.0 0.0 0.00 0.00 0.00 84 1019.1
20260505051559 55 268 0.0 0.0 0.00 0.00 0.00 82 1019.0
20260505041555 58 268 0.0 0.0 0.00 0.00 0.00 77 1017.9
20260505040059 59 124 0.0 0.0 0.00 0.00 0.00 77 1017.6
20260505034554 60 100 0.0 0.0 0.00 0.00 0.00 74 1017.3
20260505033055 61 100 0.0 0.0 0.00 0.00 0.00 72 1017.1
20260505031556 63 120 0.0 0.0 0.00 0.00 0.00 70 1016.7
20260505030053 64 270 0.0 0.0 0.00 0.00 0.00 68 1016.4
20260505024607 65 333 0.0 2.0 0.00 0.00 0.00 65 1016.1
20260505023052 67 277 0.0 1.0 0.00 0.00 0.00 63 1016.0
20260505021608 69 290 0.0 0.0 0.00 0.00 0.00 59 1015.7
20260505020050 72 265 0.0 1.0 0.00 0.00 0.00 55 1015.6
20260505014550 73 224 0.0 1.0 0.00 0.00 0.00 49 1015.6
20260505013050 75 156 0.0 0.0 0.00 0.00 0.00 49 1015.5
20260505011555 76 336 0.0 0.0 0.00 0.00 0.00 48 1015.5
20260505010047 77 323 0.0 3.0 0.00 0.04 0.00 46 1015.2
20260505004549 78 32 0.0 5.0 0.00 0.04 0.00 45 1015.1
20260505003047 78 329 0.0 2.0 0.00 0.04 0.00 46 1014.9
20260505001546 79 312 0.0 4.0 0.00 0.04 0.00 46 1014.8
20260505000046 79 310 0.0 5.0 0.00 0.06 0.00 44 1014.8
20260504234545 80 319 0.0 2.0 0.00 0.06 0.00 42 1014.8
20260504233056 80 319 0.0 2.0 0.00 0.06 0.00 41 1014.8
20260504231542 80 322 0.0 5.0 0.00 0.06 0.00 44 1014.9
20260504230043 80 316 0.0 6.0 0.00 0.06 0.00 43 1014.9
20260504224540 79 305 0.0 6.0 0.00 0.06 0.00 44 1015.0
20260504223038 79 332 0.0 4.0 0.00 0.06 0.00 44 1015.2
20260504221538 78 276 0.0 2.0 0.00 0.06 0.00 50 1015.4
20260504220030 78 135 0.0 1.0 0.00 0.06 0.00 50 1015.6
20260504214528 77 271 0.0 1.0 0.00 0.06 0.00 53 1015.9
20260504213025 76 257 0.0 4.0 0.00 0.06 0.00 51 1016.0
20260504211521 76 250 0.0 1.0 0.00 0.06 0.00 53 1016.2
20260504210020 74 282 0.0 1.0 0.00 0.06 0.00 55 1016.5
20260504204519 74 229 0.0 2.0 0.00 0.06 0.00 54 1016.8
20260504203017 73 170 0.0 1.0 0.00 0.06 0.00 60 1016.8
20260504201512 73 278 0.0 2.0 0.00 0.06 0.00 58 1017.0
20260504200010 72 295 0.0 1.0 0.00 0.06 0.00 59 1017.3
20260504194509 72 307 0.0 0.0 0.00 0.06 0.00 61 1017.4
20260504193006 72 212 0.0 1.0 0.00 0.06 0.00 60 1017.6
20260504191504 70 69 0.0 0.0 0.00 0.06 0.00 63 1017.7
20260504190101 69 133 0.0 1.0 0.00 0.06 0.00 62 1017.9
20260504184601 69 301 0.0 1.0 0.00 0.06 0.00 63 1018.1
20260504183101 68 265 0.0 0.0 0.00 0.06 0.00 67 1018.2
20260504181554 67 298 0.0 0.0 0.00 0.06 0.00 67 1018.4
20260504180052 67 278 0.0 1.0 0.00 0.06 0.00 69 1018.5
20260504174549 65 200 0.0 0.0 0.00 0.06 0.00 71 1018.5
20260504173046 64 225 0.0 0.0 0.00 0.06 0.00 72 1018.7
20260504171544 63 259 0.0 0.0 0.00 0.06 0.00 75 1018.9